(216941) = 1999 TX20

Discovered at Goodricke-Pigott on 1999-10-07 by R. A. Tucker.

Orbit

Orbit type: Main Belt

Note: WebGL enabled browser required.

epoch2023-09-13.0
epoch JD2460200.5
perihelion date2023-08-09.20538
perihelion JD2460165.70538
argument of perihelion (°)107.55565
ascending node (°)246.68841
inclination (°)3.02545
eccentricity0.2087225
perihelion distance (AU)1.7990404
Tisserand w.r.t. Jupiter3.6
ΔV w.r.t. Earth (km/sec)8.3
semimajor axis (AU)2.2735896
mean anomaly (°)10.00340
mean daily motion (°/day)0.28749860
aphelion distance (AU)2.748
period (years)3.43
P-vector [x]0.99373773
P-vector [y]-0.11154944
P-vector [z]0.00648460
Q-vector [x]0.10067717
Q-vector [y]0.91903622
Q-vector [z]0.38109912
absolute magnitude17.43
phase slope0.15
uncertainty0
referenceMPEC 2024-A141
observations used480
oppositions16
arc length (days)11432
first opposition used1992
last opposition used2024
residual rms (arc-secs)0.73
perturbers coarse indicatorM-v
perturbers precise indicator003Ek
first observation date used1992-09-23.0
last observation date used2024-01-11.0
computer nameMPCLINUX
JD of orbit computation2456731.563880
perihelion JD uncertainty (days)7.9640E-05
argument of perihelion uncertainty (°)8.7677E-05
ascending node uncertainty (°)8.4640E-05
inclination uncertainty (°)5.7092E-06
eccentricity uncertainty 4.4399E-08
perihelion distance uncertainty (AU)1.0070E-07
Minimum Orbit Intersection Distances (in AU)
for orbit epoch: 2460200.5, reference: E2024-AE1
Mercury1.42831
Venus1.07934
Earth0.79637
Mars0.42122
Jupiter2.69278
Saturn6.59069
Uranus15.7091
Neptune27.7658

Observations

492 total observations over interval: 1992 09 23.11490 – 2024 01 11.109723
These data are available for download (format description).

Date (UT) J2000 RA J2000 Dec Magn Location Ref
1992 09 23.11490 22 35 01.47 -02 03 22.2 19.3 V 691 – Steward Observatory, Kitt Peak-Spacewatch MPS 186717
1992 09 23.13323 22 35 00.90 -02 03 28.2   691 – Steward Observatory, Kitt Peak-Spacewatch MPS 186717
1992 09 23.15248 22 35 00.25 -02 03 34.4   691 – Steward Observatory, Kitt Peak-Spacewatch MPS 186717
1999 10 02.32203 01 41 42.40 +15 45 24.8 19.0 R 703 – Catalina Sky Survey MPS 9942
1999 10 02.33442 01 41 41.84 +15 45 21.4 19.5 R 703 – Catalina Sky Survey MPS 9942
1999 10 02.34675 01 41 41.27 +15 45 17.5 19.4 R 703 – Catalina Sky Survey MPS 9942
1999 10 02.35905 01 41 40.70 +15 45 13.7 18.8 R 703 – Catalina Sky Survey MPS 9942
1999 10 03.28577 01 41 01.95 +15 40 30.0 18.7   704 – Lincoln Laboratory ETS, New Mexico MPS 9942
1999 10 03.30817 01 41 00.85 +15 40 24.4 19.1   704 – Lincoln Laboratory ETS, New Mexico MPS 9942
1999 10 03.31934 01 41 00.30 +15 40 20.0 19.4   704 – Lincoln Laboratory ETS, New Mexico MPS 9942
1999 10 03.33051 01 40 59.83 +15 40 16.7 19.0   704 – Lincoln Laboratory ETS, New Mexico MPS 9942
1999 10 07.32904 01 37 59.11 +15 17 45.0 17.4 R 683 – Goodricke-Pigott Observatory, Tucson MPS 6934
1999 10 07.35274 01 37 57.95 +15 17 36.5   683 – Goodricke-Pigott Observatory, Tucson MPS 6934
1999 10 08.39703 01 37 07.73 +15 11 10.9 17.7 R 683 – Goodricke-Pigott Observatory, Tucson MPS 6934
1999 10 08.42088 01 37 06.43 +15 11 00.9   683 – Goodricke-Pigott Observatory, Tucson MPS 6934
1999 10 08.44480 01 37 05.27 +15 10 52.0   683 – Goodricke-Pigott Observatory, Tucson MPS 6934
1999 10 10.20608 01 35 39.54 +14 59 33.0 19.0   704 – Lincoln Laboratory ETS, New Mexico MPS 13679
1999 10 10.22224 01 35 38.70 +14 59 26.7 19.1   704 – Lincoln Laboratory ETS, New Mexico MPS 13679
1999 10 10.23731 01 35 37.92 +14 59 21.4 19.2   704 – Lincoln Laboratory ETS, New Mexico MPS 13679
1999 10 10.25243 01 35 37.09 +14 59 15.1 19.4   704 – Lincoln Laboratory ETS, New Mexico MPS 13679
1999 10 10.26871 01 35 36.28 +14 59 09.3 19.2   704 – Lincoln Laboratory ETS, New Mexico MPS 13679
1999 10 11.31680 01 34 43.66 +14 52 10.6 18.3 V 691 – Steward Observatory, Kitt Peak-Spacewatch MPS 17619
1999 10 11.33882 01 34 42.48 +14 52 01.8 18.1 V 691 – Steward Observatory, Kitt Peak-Spacewatch MPS 17619
1999 10 11.36972 01 34 40.79 +14 51 48.9 18.1 V 691 – Steward Observatory, Kitt Peak-Spacewatch MPS 17619
1999 10 14.350570 01 32 08.926 +14 31 02.11 18.86 V 645 – Apache Point-Sloan Digital Sky Survey MPS 79600
1999 10 14.354042 01 32 08.734 +14 31 00.58 19.79   645 – Apache Point-Sloan Digital Sky Survey MPS 79600
1999 10 15.25218 01 31 22.83 +14 24 32.8 19.6   704 – Lincoln Laboratory ETS, New Mexico MPS 13679
1999 10 15.26801 01 31 21.97 +14 24 25.2 20.5   704 – Lincoln Laboratory ETS, New Mexico MPS 13679
1999 10 15.28391 01 31 21.19 +14 24 18.3 19.7   704 – Lincoln Laboratory ETS, New Mexico MPS 13679
1999 10 15.30048 01 31 20.19 +14 24 10.6 20.0   704 – Lincoln Laboratory ETS, New Mexico MPS 13679
1999 10 15.31639 01 31 19.41 +14 24 04.2 19.9   704 – Lincoln Laboratory ETS, New Mexico MPS 13679
1999 10 20.18082 01 27 10.84 +13 47 40.6 19.1   704 – Lincoln Laboratory ETS, New Mexico MPS 9942
1999 10 20.19638 01 27 10.00 +13 47 33.8 19.1   704 – Lincoln Laboratory ETS, New Mexico MPS 9942
1999 10 20.21202 01 27 09.14 +13 47 27.1 19.6   704 – Lincoln Laboratory ETS, New Mexico MPS 9942
1999 10 20.22757 01 27 08.32 +13 47 20.1 19.1   704 – Lincoln Laboratory ETS, New Mexico MPS 9942
1999 10 20.24313 01 27 07.42 +13 47 13.1 19.4   704 – Lincoln Laboratory ETS, New Mexico MPS 9942
1999 10 30.23389 01 19 23.02 +12 31 05.2 19.1 R 703 – Catalina Sky Survey MPS 9942
1999 10 30.24592 01 19 22.59 +12 31 00.3 18.9 R 703 – Catalina Sky Survey MPS 9943
1999 10 30.25798 01 19 21.95 +12 30 54.7 18.4 R 703 – Catalina Sky Survey MPS 9943
1999 10 30.26994 01 19 21.49 +12 30 50.0 18.3 R 703 – Catalina Sky Survey MPS 9943
1999 11 05.15664 01 15 46.09 +11 49 05.5 19.4   704 – Lincoln Laboratory ETS, New Mexico MPS 9943
1999 11 05.17267 01 15 45.44 +11 48 59.0 19.4   704 – Lincoln Laboratory ETS, New Mexico MPS 9943
1999 11 05.18885 01 15 44.98 +11 48 53.4 19.2   704 – Lincoln Laboratory ETS, New Mexico MPS 9943
1999 11 05.20493 01 15 44.31 +11 48 46.8 19.8   704 – Lincoln Laboratory ETS, New Mexico MPS 9943
1999 11 14.21785 01 12 14.78 +10 55 23.8 19.2   704 – Lincoln Laboratory ETS, New Mexico MPS 9943
1999 11 14.23287 01 12 14.50 +10 55 19.5 19.1   704 – Lincoln Laboratory ETS, New Mexico MPS 9943
1999 11 14.24730 01 12 14.24 +10 55 14.8 19.6   704 – Lincoln Laboratory ETS, New Mexico MPS 9943
1999 11 14.26202 01 12 14.03 +10 55 10.0 19.9   704 – Lincoln Laboratory ETS, New Mexico MPS 9943
1999 11 14.27652 01 12 13.75 +10 55 05.2 19.6   704 – Lincoln Laboratory ETS, New Mexico MPS 9943
1999 11 15.13705 01 12 02.88 +10 50 52.0 19.7   704 – Lincoln Laboratory ETS, New Mexico MPS 9943
1999 11 15.15288 01 12 02.60 +10 50 46.6 20.1   704 – Lincoln Laboratory ETS, New Mexico MPS 9943
1999 11 15.18184 01 12 02.08 +10 50 38.6 19.8   704 – Lincoln Laboratory ETS, New Mexico MPS 9943
1999 11 15.19623 01 12 01.89 +10 50 34.4 20.5   704 – Lincoln Laboratory ETS, New Mexico MPS 9943
2004 01 18.23919 08 21 55.70 +15 17 02.2 20.2   644 – Palomar Mountain/NEAT MPS 201404
2004 01 18.26079 08 21 54.20 +15 17 06.5 20.3   644 – Palomar Mountain/NEAT MPS 201404
2004 01 18.28661 08 21 52.42 +15 17 11.1 20.1   644 – Palomar Mountain/NEAT MPS 201404
2006 09 30.37723 04 16 15.45 +23 35 25.8 20.2 V G96 – Mt. Lemmon Survey MPS 186717
2006 09 30.38282 04 16 15.60 +23 35 25.7 20.1 V G96 – Mt. Lemmon Survey MPS 186717
2006 09 30.38852 04 16 15.74 +23 35 26.1 20.0 V G96 – Mt. Lemmon Survey MPS 186717
2006 09 30.39411 04 16 15.88 +23 35 26.0 19.9 V G96 – Mt. Lemmon Survey MPS 186717
2006 10 17.40301 04 17 59.82 +23 19 56.7 19.6 V G96 – Mt. Lemmon Survey MPS 186717
2006 10 17.41043 04 17 59.64 +23 19 55.8 19.6 V G96 – Mt. Lemmon Survey MPS 186717
2006 10 17.41788 04 17 59.49 +23 19 54.8 19.9 V G96 – Mt. Lemmon Survey MPS 186717
2006 10 17.42520 04 17 59.10 +23 19 54.9 17.8 V G96 – Mt. Lemmon Survey MPS 186717
2006 11 09.44579 04 02 12.13 +21 57 01.9 19.5 R 644 – Palomar Mountain/NEAT MPS 190247
2006 11 09.46664 04 02 10.80 +21 56 55.6 19.2 R 644 – Palomar Mountain/NEAT MPS 190247
2006 11 09.48751 04 02 09.50 +21 56 48.9 20.1 R 644 – Palomar Mountain/NEAT MPS 190247
2006 11 10.21894 04 01 25.34 +21 53 08.0 19.7 V 691 – Steward Observatory, Kitt Peak-Spacewatch MPS 186717
2006 11 10.23626 04 01 24.23 +21 53 02.7 19.7 V 691 – Steward Observatory, Kitt Peak-Spacewatch MPS 186717
2006 11 10.25364 04 01 23.09 +21 52 57.8 19.7 V 691 – Steward Observatory, Kitt Peak-Spacewatch MPS 186717
2006 11 11.33073 04 00 15.73 +21 47 27.0 18.9 V 703 – Catalina Sky Survey MPS 186717
2006 11 11.33950 04 00 15.15 +21 47 24.0 19.0 V 703 – Catalina Sky Survey MPS 186717
2006 11 11.34826 04 00 14.68 +21 47 20.9 19.7 V 703 – Catalina Sky Survey MPS 186717
2006 11 11.35698 04 00 13.96 +21 47 18.4 19.0 V 703 – Catalina Sky Survey MPS 186717
2006 11 13.39031 03 58 04.63 +21 36 35.6 19.2 R 644 – Palomar Mountain/NEAT MPS 188284
2006 11 13.41126 03 58 03.23 +21 36 29.0 20.0 R 644 – Palomar Mountain/NEAT MPS 188284
2006 11 13.43212 03 58 01.78 +21 36 22.2 19.5 R 644 – Palomar Mountain/NEAT MPS 188284
2006 11 18.28393 03 52 44.61 +21 09 37.8 19.6   704 – Lincoln Laboratory ETS, New Mexico MPS 188284
2006 11 18.29626 03 52 43.76 +21 09 32.3 19.4   704 – Lincoln Laboratory ETS, New Mexico MPS 188284
2006 11 18.30859 03 52 43.04 +21 09 30.2 19.1   704 – Lincoln Laboratory ETS, New Mexico MPS 188284
2006 11 18.32092 03 52 42.15 +21 09 25.1 19.7   704 – Lincoln Laboratory ETS, New Mexico MPS 188284
2006 11 21.24644 03 49 29.55 +20 52 45.5 18.9   704 – Lincoln Laboratory ETS, New Mexico MPS 188284
2006 11 21.25894 03 49 28.67 +20 52 41.1 19.1   704 – Lincoln Laboratory ETS, New Mexico MPS 188284
2006 11 21.27124 03 49 27.83 +20 52 37.4 19.3   704 – Lincoln Laboratory ETS, New Mexico MPS 188284
2006 11 21.28355 03 49 26.98 +20 52 33.4 19.2   704 – Lincoln Laboratory ETS, New Mexico MPS 188284
2006 11 21.29587 03 49 26.18 +20 52 28.8 19.1   704 – Lincoln Laboratory ETS, New Mexico MPS 188284
